FW6402 Weather Reports


time (UTC)temp
C
wind
direction
speed
KPH
gust
KPH
rain 1hr
cm
rain 24hr
cm
rain mn
cm
humidity
%
barometer
mb
20260506222845 20 261 0.0 6.4 0.00 0.00 0.00 65 1022.3
20260506222343 20 160 1.6 6.4 0.00 0.00 0.00 67 1022.3
20260506221840 20 236 1.6 4.8 0.00 0.00 0.00 67 1022.4
20260506221338 20 282 1.6 8.0 0.00 0.00 0.00 67 1022.4
20260506220849 20 131 4.8 8.0 0.00 0.00 0.00 66 1022.4
20260506220356 20 51 1.6 8.0 0.00 0.00 0.00 66 1022.4
20260506215831 20 110 0.0 9.7 0.00 0.00 0.00 67 1022.3
20260506215348 20 238 4.8 9.7 0.00 0.00 0.00 67 1022.3
20260506214841 20 267 3.2 8.0 0.00 0.00 0.00 67 1022.3
20260506214408 20 162 4.8 8.0 0.00 0.00 0.00 67 1022.4
20260506213843 20 212 3.2 8.0 0.00 0.00 0.00 68 1022.5
20260506213334 20 91 3.2 9.7 0.00 0.00 0.00 69 1022.4
20260506212854 18 120 4.8 9.7 0.00 0.00 0.00 70 1022.5
20260506212330 19 266 1.6 6.4 0.00 0.00 0.00 69 1022.7
20260506211848 18 117 0.0 6.4 0.00 0.00 0.00 70 1022.7
20260506211413 18 288 3.2 6.4 0.00 0.00 0.00 70 1022.8
20260506210849 18 119 1.6 6.4 0.00 0.00 0.00 72 1022.8
20260506210342 18 226 1.6 6.4 0.00 0.00 0.00 69 1022.8
20260506205840 19 267 3.2 6.4 0.00 0.00 0.00 71 1022.7
20260506205334 18 145 0.0 6.4 0.00 0.00 0.00 71 1022.7
20260506204854 18 226 1.6 9.7 0.00 0.00 0.00 71 1022.7
20260506204352 18 245 1.6 9.7 0.00 0.00 0.00 74 1022.7
20260506203847 18 262 1.6 6.4 0.00 0.00 0.00 73 1022.6
20260506203344 18 216 3.2 6.4 0.00 0.00 0.00 71 1022.6
20260506202851 18 252 1.6 8.0 0.00 0.00 0.00 73 1022.6
20260506202349 18 274 3.2 8.0 0.00 0.00 0.00 72 1022.7
20260506201846 18 265 0.0 9.7 0.00 0.00 0.00 73 1022.7
20260506201344 18 263 1.6 9.7 0.00 0.00 0.00 74 1022.8
20260506200839 18 190 1.6 4.8 0.00 0.00 0.00 73 1023.0
20260506200335 18 217 1.6 8.0 0.00 0.00 0.00 74 1022.9
20260506195832 17 250 1.6 8.0 0.00 0.00 0.00 74 1022.9
20260506195355 18 262 1.6 4.8 0.00 0.00 0.00 72 1023.0
20260506194833 18 207 0.0 4.8 0.00 0.00 0.00 73 1023.0
20260506194330 17 221 1.6 4.8 0.00 0.00 0.00 73 1023.0
20260506193914 17 293 1.6 4.8 0.00 0.00 0.00 73 1023.0
20260506193351 17 103 0.0 6.4 0.00 0.00 0.00 74 1023.0
20260506192848 18 252 3.2 6.4 0.00 0.00 0.00 72 1023.1
20260506192405 18 238 1.6 6.4 0.00 0.00 0.00 73 1022.8
20260506191837 18 236 1.6 6.4 0.00 0.00 0.00 70 1022.9
20260506191337 18 65 0.0 3.2 0.00 0.00 0.00 71 1022.8
20260506190833 18 212 0.0 3.2 0.00 0.00 0.00 73 1023.0
20260506190331 17 64 1.6 11.3 0.00 0.00 0.00 75 1023.0
20260506185855 17 295 3.2 11.3 0.00 0.00 0.00 77 1022.9
20260506185351 17 264 8.0 11.3 0.00 0.00 0.00 76 1022.8
20260506184850 17 239 3.2 6.4 0.00 0.00 0.00 76 1022.8
20260506184348 16 258 0.0 6.4 0.00 0.00 0.00 79 1022.9
20260506183845 16 237 3.2 6.4 0.00 0.00 0.00 78 1022.9
20260506183342 16 244 3.2 6.4 0.00 0.00 0.00 78 1023.0
20260506182840 16 219 3.2 6.4 0.00 0.00 0.00 79 1022.9
20260506182404 16 238 1.6 3.2 0.00 0.00 0.00 79 1022.9
20260506181901 16 237 1.6 6.4 0.00 0.00 0.00 80 1023.0
20260506181401 15 245 1.6 6.4 0.00 0.00 0.00 82 1023.0
20260506180858 15 258 3.2 6.4 0.00 0.00 0.00 81 1022.9
20260506180354 15 244 0.0 6.4 0.00 0.00 0.00 82 1023.0
20260506175900 15 257 3.2 6.4 0.00 0.00 0.00 82 1023.0
20260506175354 15 281 3.2 4.8 0.00 0.00 0.00 82 1022.9
20260506174847 15 276 1.6 4.8 0.00 0.00 0.00 82 1022.9
20260506174345 15 269 1.6 4.8 0.00 0.00 0.00 82 1022.8
20260506173843 15 225 0.0 3.2 0.00 0.00 0.00 83 1022.7
20260506173341 15 230 0.0 3.2 0.00 0.00 0.00 83 1022.7
20260506172838 15 290 0.0 3.2 0.00 0.00 0.00 83 1022.7
20260506172358 15 265 0.0 1.6 0.00 0.00 0.00 84 1022.5
20260506171854 15 214 0.0 1.6 0.00 0.00 0.00 84 1022.7
20260506171331 15 276 0.0 1.6 0.00 0.00 0.00 84 1022.8
20260506170829 15 281 1.6 3.2 0.00 0.00 0.00 83 1022.8
20260506170347 15 278 1.6 3.2 0.00 0.00 0.00 83 1022.8
20260506165844 15 268 0.0 3.2 0.00 0.00 0.00 83 1022.7
20260506165339 15 266 0.0 4.8 0.00 0.00 0.00 83 1022.7
20260506164900 15 224 1.6 3.2 0.00 0.00 0.00 83 1022.6
20260506164338 15 231 0.0 3.2 0.00 0.00 0.00 83 1022.7
20260506163857 15 276 1.6 3.2 0.00 0.00 0.00 82 1022.6
20260506163332 15 141 0.0 1.6 0.00 0.00 0.00 82 1022.5
20260506162919 15 143 0.0 1.6 0.00 0.00 0.00 81 1022.4
20260506162353 15 141 0.0 3.2 0.00 0.00 0.00 82 1022.4
20260506161907 15 158 1.6 3.2 0.00 0.00 0.00 82 1022.4
20260506161339 15 269 0.0 3.2 0.00 0.00 0.00 82 1022.3
20260506160835 15 134 0.0 3.2 0.00 0.00 0.00 82 1022.1
20260506160355 15 255 1.6 6.4 0.00 0.00 0.00 82 1022.3
20260506155831 14 116 0.0 6.4 0.00 0.00 0.00 83 1021.9
20260506155348 14 155 1.6 6.4 0.00 0.00 0.00 83 1021.8
20260506154846 13 58 3.2 6.4 0.00 0.00 0.00 84 1021.8
20260506154343 13 98 1.6 3.2 0.00 0.00 0.00 84 1022.3
20260506153910 13 302 1.6 3.2 0.00 0.00 0.00 84 1022.6
20260506153407 13 278 0.0 3.2 0.00 0.00 0.00 84 1022.6
20260506152839 13 266 0.0 4.8 0.00 0.00 0.00 84 1022.7
20260506152406 13 287 0.0 4.8 0.00 0.00 0.00 84 1022.8
20260506151904 14 266 1.6 3.2 0.00 0.00 0.00 84 1022.7
20260506151340 14 264 0.0 3.2 0.00 0.00 0.00 84 1022.7
20260506150902 14 257 0.0 3.2 0.00 0.00 0.00 84 1022.6
20260506150339 14 322 0.0 0.0 0.00 0.00 0.00 84 1022.6
20260506145858 14 263 0.0 0.0 0.00 0.00 0.00 84 1022.5
20260506145333 14 79 0.0 0.0 0.00 0.00 0.00 84 1022.6
20260506144849 14 79 0.0 0.0 0.00 0.00 0.00 84 1022.6
20260506144402 14 79 0.0 0.0 0.00 0.00 0.00 84 1022.3
20260506143847 14 80 0.0 0.0 0.00 0.00 0.00 85 1022.4
20260506143344 13 80 0.0 0.0 0.00 0.00 0.00 84 1022.0
20260506142841 13 79 0.0 0.0 0.00 0.00 0.00 84 1021.9
20260506142345 13 79 0.0 0.0 0.00 0.00 0.00 84 1021.8
20260506141844 13 77 0.0 0.0 0.00 0.00 0.00 85 1021.8
20260506141402 13 77 0.0 0.0 0.00 0.00 0.00 85 1021.8
20260506140901 13 53 0.0 0.0 0.00 0.00 0.00 85 1021.9
20260506140334 13 52 0.0 0.0 0.00 0.00 0.00 85 1021.9
20260506135854 13 68 0.0 0.0 0.00 0.00 0.00 85 1021.8
20260506135330 13 68 0.0 0.0 0.00 0.00 0.00 85 1021.7
20260506134848 13 67 0.0 0.0 0.00 0.00 0.00 85 1021.8
20260506134345 13 68 0.0 0.0 0.00 0.00 0.00 85 1021.7
20260506133841 13 38 0.0 0.0 0.00 0.00 0.00 85 1021.6
20260506133400 13 37 0.0 0.0 0.00 0.00 0.00 85 1021.6
20260506132857 13 37 0.0 0.0 0.00 0.00 0.00 85 1021.6
20260506132354 13 37 0.0 0.0 0.00 0.00 0.00 85 1021.5
20260506131846 13 37 0.0 0.0 0.00 0.00 0.00 85 1021.4
20260506131344 13 37 0.0 0.0 0.00 0.00 0.00 85 1021.5
20260506130841 13 37 0.0 0.0 0.00 0.00 0.00 85 1021.6
20260506130408 13 37 0.0 0.0 0.00 0.00 0.00 85 1021.5
20260506125843 13 37 0.0 0.0 0.00 0.00 0.00 84 1021.4
20260506125401 13 37 0.0 0.0 0.00 0.00 0.00 84 1021.3
20260506124858 13 37 0.0 0.0 0.00 0.00 0.00 84 1021.3
20260506124356 13 36 0.0 0.0 0.00 0.00 0.00 84 1021.4
20260506123848 13 36 0.0 0.0 0.00 0.00 0.00 84 1021.4
20260506123346 13 36 0.0 0.0 0.00 0.00 0.00 84 1021.4
20260506122843 13 37 0.0 0.0 0.00 0.00 0.00 84 1021.4
20260506122349 13 36 0.0 0.0 0.00 0.00 0.00 84 1021.4
20260506121846 13 36 0.0 0.0 0.00 0.00 0.00 84 1021.4
20260506121403 13 36 0.0 0.0 0.00 0.00 0.00 84 1021.3
20260506120842 13 36 0.0 0.0 0.00 0.00 0.00 85 1021.2
20260506120339 13 36 0.0 0.0 0.00 0.00 0.00 84 1021.2
20260506115858 13 36 0.0 0.0 0.00 0.00 0.00 84 1021.2
20260506115352 13 37 0.0 0.0 0.00 0.00 0.00 84 1021.1
20260506114850 13 36 0.0 0.0 0.00 0.00 0.00 84 1021.1
20260506114346 13 37 0.0 0.0 0.00 0.00 0.00 84 1021.0
20260506113839 13 37 0.0 0.0 0.00 0.00 0.00 84 1021.0
20260506113336 13 342 0.0 3.2 0.00 0.00 0.00 84 1021.0
20260506112855 13 264 0.0 3.2 0.00 0.00 0.00 84 1020.9
20260506112352 14 11 0.0 1.6 0.00 0.00 0.00 84 1020.9
20260506111831 14 39 0.0 1.6 0.00 0.00 0.00 84 1020.8
20260506111350 14 39 0.0 1.6 0.00 0.00 0.00 84 1020.8
20260506110847 14 20 0.0 1.6 0.00 0.00 0.00 84 1020.7
20260506110412 14 21 0.0 0.0 0.00 0.00 0.00 84 1020.7
20260506105845 14 22 0.0 0.0 0.00 0.00 0.00 85 1020.5
20260506105403 14 16 0.0 0.0 0.00 0.00 0.00 84 1020.4
20260506104847 14 16 0.0 0.0 0.00 0.00 0.00 85 1020.2
20260506104343 14 15 0.0 0.0 0.00 0.00 0.00 85 1020.2
20260506103838 14 16 0.0 0.0 0.00 0.00 0.00 84 1020.2
20260506103329 14 15 0.0 0.0 0.00 0.00 0.00 84 1020.1
20260506102855 14 15 0.0 0.0 0.00 0.00 0.00 83 1020.1
20260506102329 14 15 0.0 0.0 0.00 0.00 0.00 83 1019.9
20260506101843 14 15 0.0 1.6 0.00 0.00 0.00 83 1019.8
20260506101343 14 15 0.0 1.6 0.00 0.00 0.00 83 1019.9
20260506100839 14 15 0.0 3.2 0.00 0.00 0.00 83 1019.7
20260506100335 14 41 0.0 4.8 0.00 0.00 0.00 83 1019.8
20260506095844 15 38 0.0 4.8 0.00 0.00 0.00 83 1019.7
20260506095349 15 60 0.0 3.2 0.00 0.00 0.00 83 1019.7
20260506094846 15 55 0.0 1.6 0.00 0.00 0.00 83 1019.7
20260506094343 15 70 0.0 3.2 0.00 0.00 0.00 83 1019.7
20260506093838 15 70 0.0 3.2 0.00 0.00 0.00 84 1019.6
20260506093338 15 49 0.0 1.6 0.00 0.00 0.00 84 1019.6
20260506092835 15 8 0.0 1.6 0.00 0.00 0.00 85 1019.7
20260506092348 15 8 0.0 1.6 0.00 0.00 0.00 84 1019.6
20260506091846 15 20 0.0 1.6 0.00 0.00 0.00 85 1019.5
20260506091343 15 240 0.0 1.6 0.00 0.00 0.00 85 1019.5
20260506090904 15 101 0.0 1.6 0.00 0.00 0.00 86 1019.4
20260506090340 15 77 0.0 0.0 0.00 0.00 0.00 87 1019.5
20260506085831 15 77 0.0 0.0 0.00 0.00 0.00 87 1019.3
20260506085357 15 77 0.0 0.0 0.00 0.00 0.00 87 1019.5
20260506084832 15 77 0.0 0.0 0.00 0.00 0.00 86 1019.4
20260506084330 15 77 0.0 0.0 0.00 0.00 0.00 86 1019.5
20260506083844 15 77 0.0 1.6 0.00 0.00 0.00 86 1019.5
20260506083410 15 77 0.0 1.6 0.00 0.00 0.00 86 1019.5
20260506082907 15 77 0.0 0.0 0.00 0.00 0.00 86 1019.4
20260506082351 15 77 0.0 0.0 0.00 0.00 0.00 86 1019.4
20260506081847 15 77 0.0 0.0 0.00 0.00 0.00 86 1019.5
20260506081406 15 77 0.0 0.0 0.00 0.00 0.00 86 1019.5
20260506080850 15 77 0.0 0.0 0.00 0.00 0.00 86 1019.4
20260506080403 15 77 0.0 0.0 0.00 0.00 0.00 86 1019.3
20260506073333 15 77 0.0 1.6 0.00 0.00 0.00 85 1019.2
20260506072831 15 77 0.0 0.0 0.00 0.00 0.00 85 1019.2
20260506072348 15 77 0.0 0.0 0.00 0.00 0.00 85 1019.2
20260506071854 15 77 0.0 0.0 0.00 0.00 0.00 85 1019.2
20260506071408 15 77 0.0 0.0 0.00 0.00 0.00 85 1019.1
20260506070843 15 77 0.0 0.0 0.00 0.00 0.00 85 1019.1
20260506070341 15 77 0.0 1.6 0.00 0.00 0.00 85 1019.1
20260506062350 15 92 0.0 0.0 0.00 0.00 0.00 85 1019.0
20260506061842 15 91 0.0 0.0 0.00 0.00 0.00 85 1018.9
20260506061338 15 92 0.0 0.0 0.00 0.00 0.00 85 1018.9
20260506060905 15 92 0.0 1.6 0.00 0.00 0.00 85 1018.9
20260506060340 15 92 0.0 1.6 0.00 0.00 0.00 85 1018.9
20260506051340 14 110 0.0 0.0 0.00 0.00 0.00 86 1018.6
20260506050847 14 110 0.0 0.0 0.00 0.00 0.00 86 1018.5
20260506050345 14 110 0.0 0.0 0.00 0.00 0.00 86 1018.6
20260506044856 13 110 0.0 0.0 0.00 0.00 0.00 85 1018.5
20260506044349 14 110 0.0 0.0 0.00 0.00 0.00 85 1018.5
20260506043845 14 110 0.0 0.0 0.00 0.00 0.00 84 1018.4
20260506043343 14 110 0.0 0.0 0.00 0.00 0.00 84 1018.3
20260506042842 14 110 0.0 0.0 0.00 0.00 0.00 83 1018.2
20260506042338 15 110 0.0 0.0 0.00 0.00 0.00 83 1018.2
20260506041858 15 110 0.0 0.0 0.00 0.00 0.00 82 1018.1
20260506041355 15 110 0.0 0.0 0.00 0.00 0.00 82 1018.1
20260506040832 15 110 0.0 0.0 0.00 0.00 0.00 81 1018.1
20260506040349 15 110 0.0 0.0 0.00 0.00 0.00 81 1017.9
20260506035846 15 110 0.0 0.0 0.00 0.00 0.00 81 1017.9
20260506035340 15 110 0.0 0.0 0.00 0.00 0.00 80 1017.9
20260506034838 16 110 0.0 0.0 0.00 0.00 0.00 80 1017.7
20260506034337 16 110 0.0 0.0 0.00 0.00 0.00 79 1017.7
20260506033833 16 110 0.0 0.0 0.00 0.00 0.00 78 1017.6
20260506033330 16 110 0.0 0.0 0.00 0.00 0.00 77 1017.5
20260506032917 16 110 0.0 0.0 0.00 0.00 0.00 77 1017.5
20260506032353 17 110 0.0 0.0 0.00 0.00 0.00 76 1017.5
20260506031852 17 110 0.0 0.0 0.00 0.00 0.00 75 1017.5
20260506031348 17 110 0.0 0.0 0.00 0.00 0.00 75 1017.4
20260506030911 17 103 0.0 0.0 0.00 0.00 0.00 74 1017.4
20260506030346 17 103 0.0 0.0 0.00 0.00 0.00 74 1017.3
20260506025844 17 103 0.0 0.0 0.00 0.00 0.00 74 1017.3
20260506025342 17 103 0.0 0.0 0.00 0.00 0.00 73 1017.2
20260506024839 17 155 0.0 0.0 0.00 0.00 0.00 72 1017.2
20260506024359 17 84 0.0 0.0 0.00 0.00 0.00 72 1017.2
20260506023858 17 84 0.0 0.0 0.00 0.00 0.00 73 1017.2
20260506023354 17 79 0.0 0.0 0.00 0.00 0.00 72 1017.2
20260506022850 17 79 0.0 3.2 0.00 0.00 0.00 73 1017.2
20260506022346 17 99 1.6 3.2 0.00 0.00 0.00 73 1017.2
20260506021844 17 92 1.6 3.2 0.00 0.00 0.00 72 1017.2
20260506021338 17 308 0.0 0.0 0.00 0.00 0.00 71 1017.1
20260506020835 17 308 0.0 0.0 0.00 0.00 0.00 71 1017.2
20260506020354 18 309 0.0 0.0 0.00 0.00 0.00 70 1017.2
20260506015831 18 313 0.0 0.0 0.00 0.00 0.00 70 1017.2
20260506015348 18 313 0.0 0.0 0.00 0.00 0.00 70 1017.1
20260506014854 18 314 0.0 0.0 0.00 0.00 0.00 70 1017.1
20260506014351 18 288 0.0 0.0 0.00 0.00 0.00 70 1017.2
20260506013848 18 288 0.0 1.6 0.00 0.00 0.00 71 1017.2
20260506013346 18 288 0.0 1.6 0.00 0.00 0.00 70 1017.2
20260506012844 18 287 0.0 1.6 0.00 0.00 0.00 71 1017.2
20260506012355 18 281 0.0 1.6 0.00 0.00 0.00 70 1017.1
20260506011832 18 281 0.0 1.6 0.00 0.00 0.00 71 1017.1
20260506011348 18 266 0.0 1.6 0.00 0.00 0.00 72 1017.1
20260506010915 18 254 0.0 1.6 0.00 0.00 0.00 71 1017.1
20260506010330 17 264 0.0 1.6 0.00 0.00 0.00 71 1017.2
20260506005845 17 285 0.0 3.2 0.00 0.00 0.00 71 1017.1
20260506005342 17 211 1.6 3.2 0.00 0.00 0.00 70 1017.1
20260506004841 17 214 0.0 1.6 0.00 0.00 0.00 71 1017.1
20260506004348 17 266 0.0 1.6 0.00 0.00 0.00 72 1017.2
20260506003845 17 276 0.0 4.8 0.00 0.00 0.00 71 1017.2
20260506003336 18 278 0.0 4.8 0.00 0.00 0.00 71 1017.2
20260506002855 18 25 0.0 1.6 0.00 0.00 0.00 71 1017.2
20260506002354 18 226 0.0 1.6 0.00 0.00 0.00 70 1017.2
20260506001829 17 348 0.0 3.2 0.00 0.00 0.00 71 1017.2
20260506001345 17 280 1.6 4.8 0.00 0.00 0.00 72 1017.3
20260506000841 17 269 0.0 4.8 0.00 0.00 0.00 71 1017.3
20260506000339 17 283 0.0 6.4 0.00 0.00 0.00 70 1017.3
20260505235838 18 34 1.6 6.4 0.00 0.00 0.00 69 1017.3
20260505235333 18 264 0.0 3.2 0.00 0.00 0.00 70 1017.4
20260505234846 18 38 0.0 3.2 0.00 0.00 0.00 70 1017.4
20260505234342 18 80 0.0 3.2 0.00 0.00 0.00 70 1017.4
20260505233838 17 263 0.0 4.8 0.00 0.00 0.00 71 1017.5
20260505233405 17 256 1.6 4.8 0.00 0.00 0.00 70 1017.4
20260505232840 18 282 1.6 4.8 0.00 0.00 0.00 69 1017.5
20260505232338 18 238 1.6 4.8 0.00 0.00 0.00 70 1017.5
20260505231858 18 9 0.0 3.2 0.00 0.00 0.00 71 1017.6
20260505231355 18 264 0.0 6.4 0.00 0.00 0.00 71 1017.5
20260505230832 18 226 1.6 6.4 0.00 0.00 0.00 69 1017.5
20260505230414 18 247 0.0 1.6 0.00 0.00 0.00 70 1017.5
20260505225851 18 32 0.0 1.6 0.00 0.00 0.00 71 1017.6
20260505225349 17 274 0.0 6.4 0.00 0.00 0.00 71 1017.6
20260505224906 17 284 0.0 6.4 0.00 0.00 0.00 72 1017.6
20260505224342 17 264 0.0 4.8 0.00 0.00 0.00 71 1017.7
20260505223839 18 23 1.6 6.4 0.00 0.00 0.00 71 1017.8
20260505223347 18 44 0.0 6.4 0.00 0.00 0.00 70 1017.8